DAL1882 KATL-TJSJ

Flight info

Callsign DAL1882
Flight time N/A
Altitude 35000
Route VRSTY3 NOKIE DCT YANTI Q89 MANLE Y185 RENAH/N0447F370 Y355 PLING RTE7 SAALR
Aircraft A321/M-SDE3FGHIRWY/LB1

Departure

Time 2026-05-05 14:25
Airport Hartsfield Jackson Atlanta International Airport (KATL)

Arrival

Time N/A
Airport Luis Munoz Marin International Airport (TJSJ)
Time Latitude Longitude Altitude Speed Heading
2026-05-05 13:33 33.64051 -84.43974 1036 ft 0 kts 91°
2026-05-05 14:10 33.64052 -84.43999 1035 ft 4 kts 94°
2026-05-05 14:11 33.64057 -84.44030 1035 ft 4 kts 122°
2026-05-05 14:11 33.64075 -84.44050 1035 ft 4 kts 168°
2026-05-05 14:11 33.64088 -84.44051 1035 ft 1 kts 180°
2026-05-05 14:11 33.64089 -84.44051 1035 ft 0 kts 180°
2026-05-05 14:14 33.64085 -84.44051 1035 ft 1 kts 180°
2026-05-05 14:15 33.64071 -84.44052 1035 ft 3 kts 181°
2026-05-05 14:15 33.64040 -84.44052 1035 ft 8 kts 180°
2026-05-05 14:15 33.63973 -84.44052 1035 ft 9 kts 180°
2026-05-05 14:15 33.63913 -84.44052 1035 ft 8 kts 180°
2026-05-05 14:16 33.63861 -84.44052 1035 ft 7 kts 180°
2026-05-05 14:16 33.63796 -84.44052 1036 ft 12 kts 180°
2026-05-05 14:16 33.63711 -84.44050 1036 ft 12 kts 172°
2026-05-05 14:16 33.63665 -84.43980 1036 ft 13 kts 95°
2026-05-05 14:17 33.63665 -84.43874 1036 ft 12 kts 90°
2026-05-05 14:17 33.63664 -84.43781 1035 ft 7 kts 96°
2026-05-05 14:17 33.63628 -84.43755 1036 ft 7 kts 172°
2026-05-05 14:17 33.63585 -84.43709 1036 ft 10 kts 107°
2026-05-05 14:18 33.63582 -84.43605 1035 ft 15 kts 90°
2026-05-05 14:18 33.63582 -84.43459 1035 ft 19 kts 90°
2026-05-05 14:18 33.63582 -84.43308 1034 ft 18 kts 90°
2026-05-05 14:18 33.63582 -84.43166 1035 ft 16 kts 90°
2026-05-05 14:19 33.63582 -84.43035 1035 ft 15 kts 90°
2026-05-05 14:19 33.63582 -84.42913 1035 ft 14 kts 89°
2026-05-05 14:19 33.63582 -84.42803 1035 ft 12 kts 90°
2026-05-05 14:19 33.63582 -84.42701 1036 ft 13 kts 90°
2026-05-05 14:20 33.63582 -84.42578 1036 ft 16 kts 90°
2026-05-05 14:20 33.63582 -84.42433 1036 ft 18 kts 90°
2026-05-05 14:20 33.63582 -84.42288 1036 ft 17 kts 90°
2026-05-05 14:20 33.63582 -84.42148 1036 ft 17 kts 90°
2026-05-05 14:21 33.63582 -84.42009 1036 ft 17 kts 90°
2026-05-05 14:21 33.63582 -84.41869 1035 ft 17 kts 90°
2026-05-05 14:21 33.63582 -84.41730 1035 ft 16 kts 90°
2026-05-05 14:21 33.63582 -84.41594 1035 ft 16 kts 90°
2026-05-05 14:22 33.63582 -84.41458 1034 ft 16 kts 90°
2026-05-05 14:22 33.63582 -84.41323 1034 ft 16 kts 90°
2026-05-05 14:22 33.63582 -84.41193 1035 ft 15 kts 90°
2026-05-05 14:22 33.63582 -84.41069 1035 ft 15 kts 90°
2026-05-05 14:23 33.63575 -84.40954 1035 ft 13 kts 112°
2026-05-05 14:23 33.63515 -84.40916 1036 ft 8 kts 178°
2026-05-05 14:23 33.63475 -84.40929 1036 ft 5 kts 240°
2026-05-05 14:23 33.63472 -84.40978 1036 ft 11 kts 270°
2026-05-05 14:24 33.63472 -84.41333 1035 ft 76 kts 270°
2026-05-05 14:24 33.63472 -84.42206 1036 ft 130 kts 270°
2026-05-05 14:24 33.63472 -84.43471 1047 ft 170 kts 270°
2026-05-05 14:24 33.63474 -84.44917 1507 ft 174 kts 270°
2026-05-05 14:25 33.63475 -84.46366 2100 ft 174 kts 268°
2026-05-05 14:25 33.63475 -84.47812 2691 ft 174 kts 266°
2026-05-05 14:25 33.63471 -84.49319 2893 ft 190 kts 266°
2026-05-05 14:25 33.63461 -84.50974 3081 ft 207 kts 266°
2026-05-05 14:26 33.63457 -84.52759 3254 ft 221 kts 266°
2026-05-05 14:26 33.63456 -84.54707 3292 ft 249 kts 266°
2026-05-05 14:26 33.63454 -84.56846 3843 ft 259 kts 266°
2026-05-05 14:26 33.63457 -84.58995 4655 ft 261 kts 266°
2026-05-05 14:27 33.63465 -84.61187 5454 ft 264 kts 266°
2026-05-05 14:27 33.63377 -84.63388 6245 ft 264 kts 255°
2026-05-05 14:27 33.62698 -84.65423 6957 ft 264 kts 235°
2026-05-05 14:27 33.61478 -84.67066 7666 ft 266 kts 218°
2026-05-05 14:28 33.59877 -84.68196 8393 ft 269 kts 206°
2026-05-05 14:28 33.58144 -84.69084 9066 ft 275 kts 198°
2026-05-05 14:28 33.56236 -84.69448 9732 ft 281 kts 182°
2026-05-05 14:28 33.54265 -84.69163 10333 ft 289 kts 171°
2026-05-05 14:29 33.52269 -84.68735 10930 ft 294 kts 172°
2026-05-05 14:29 33.50239 -84.68336 11568 ft 298 kts 173°
2026-05-05 14:29 33.48172 -84.67944 12193 ft 302 kts 173°
2026-05-05 14:29 33.46108 -84.67556 12800 ft 307 kts 174°
2026-05-05 14:30 33.44024 -84.66915 13393 ft 315 kts 160°
2026-05-05 14:30 33.42107 -84.65596 13993 ft 323 kts 144°
2026-05-05 14:30 33.40482 -84.63624 14154 ft 345 kts 126°
2026-05-05 14:30 33.39217 -84.61080 14283 ft 365 kts 120°
2026-05-05 14:31 33.37942 -84.58383 14561 ft 378 kts 120°
2026-05-05 14:31 33.36633 -84.55631 15069 ft 383 kts 120°
2026-05-05 14:31 33.35304 -84.52855 15609 ft 387 kts 121°
2026-05-05 14:31 33.33955 -84.50048 16132 ft 391 kts 121°
2026-05-05 14:32 33.32589 -84.47213 16662 ft 396 kts 121°
2026-05-05 14:32 33.31206 -84.44348 17186 ft 400 kts 121°
2026-05-05 14:32 33.29806 -84.41457 17706 ft 404 kts 121°
2026-05-05 14:32 33.28390 -84.38532 18217 ft 408 kts 121°